Regional Weather Roundup
Issued by NWS

Home | Current Version | Previous Version | Graphics & Text | Print | Product List | Glossary On
Versions: 1 2 3 4 5 6 7 8 9 10 11 12 13 14 15 16 17 18 19 20 21 22 23 24 25 26 27 28 29 30 31 32 33 34 35 36 37 38 39 40 41 42 43 44 45 46 47 48 49 50
000
ASUS43 KDTX 021310
RWRMI
MICHIGAN HOURLY REGIONAL WEATHER ROUNDUP
NATIONAL WEATHER SERVICE DETROIT/PONTIAC MI
900 AM EDT SUN AUG 02 2015

NOTE: "FAIR" INDICATES FEW OR NO CLOUDS BELOW 12,000 FEET WITH NO
SIGNIFICANT WEATHER AND/OR OBSTRUCTION TO VISIBILITY.

MIZ047>049-052>055-059>063-066>070-074>076-081>083-021400-
SOUTHEAST LOWER MICHIGAN

CITY           SKY/WX    TMP DP  RH WIND       PRES   REMARKS
ADRIAN         MOSUNNY   69  64  84 W6        29.91F
ALMA           PTSUNNY   68  64  89 S7        29.81F
ANN ARBOR      PTSUNNY   70  64  81 SW6       29.88F
BAD AXE        MOSUNNY   68  58  69 S9        29.81F
DETROIT CITY   MOSUNNY   73  59  61 SW7       29.88S
DETROIT        PTSUNNY   70  61  73 S8        29.89S
FLINT          PTSUNNY   73  63  70 SW7       29.85F
GROSSE ILE     MOSUNNY   72  63  73 W6        29.88S
HILLSDALE      MOSUNNY   72  67  84 W6        29.92S
HOWELL         PTSUNNY   70  64  81 SW6       29.87F

CITY           SKY/WX    TMP DP  RH WIND       PRES   REMARKS
JACKSON        MOSUNNY   71  65  81 SW10      29.89F
LAMBERTVILLE   MOSUNNY   73  64  72 W5        29.91S
LANSING        MOSUNNY   72  64  76 SW13      29.86F
LAPEER         NOT AVBL
MASON          PTSUNNY   69  63  83 SW6       29.87F
MONROE         MOSUNNY   70  64  81 SW7       29.89S
MT. CLEMENS    PTSUNNY   74  59  59 SW6       29.85F
PONTIAC        PTSUNNY   71  62  73 W7        29.87F
PORT HOPE        N/A     70  57  63 SW6       29.78F
PORT HURON     SUNNY     68  59  73 S3        29.87F
TRI CITIES     PTSUNNY   70  60  70 SW12      29.80F
YPSILANTI      PTSUNNY   73  63  70 SW8       29.89F
$$
MIZ043>046-050>051-056>058-064>065-071>073-077>080-021400-
SOUTHWEST LOWER MICHIGAN

CITY           SKY/WX    TMP DP  RH WIND       PRES   REMARKS
BATTLE CREEK   MOSUNNY   72  65  78 S8        29.88F
BENTON HARBOR  MOSUNNY   75  68  78 SW8       29.86F
BIG RAPIDS     PTSUNNY   72  67  83 SW3       29.78F
COLDWATER      SUNNY     70  64  81 SW7       29.91S
HOLLAND        MOSUNNY   76  69  79 SW12      29.83F
GRAND RAPIDS   PTSUNNY   74  67  78 S13       29.83F
KALAMAZOO      SUNNY     72  65  78 SW7       29.88F
MARSHALL       MOSUNNY   71  65  81 SW6       29.89S
MUSKEGON       CLOUDY    76  68  76 S10       29.81F
$$
MIZ016>042-021400-
NORTHERN LOWER MICHIGAN

CITY           SKY/WX    TMP DP  RH WIND       PRES   REMARKS
ALPENA         SUNNY     71  57  61 S8        29.71F
BEAVER ISLAND  RAIN      70  64  80 SW7       29.66R VSB 1/2
BELLAIRE       MOSUNNY   73  60  64 SW5       29.69F
CADILLAC       PTSUNNY   70  62  75 S9        29.75F
CHARLEVOIX     PTSUNNY   73  61  68 S12       29.68F
FRANKFORT      PTSUNNY   74  67  78 S6        29.65F
GAYLORD        MOSUNNY   70  58  65 S9        29.72F
GRAYLING       MOSUNNY   71  59  64 S7        29.73F
HARBOR SPRINGS PTSUNNY   68  58  70 CALM      29.66F
HOUGHTON LAKE  PTSUNNY   70  59  68 SW12G17   29.76F
MANISTEE       PTSUNNY   70  64  83 S3        29.69F
OSCODA         MOSUNNY   70  56  61 S10       29.74F
PELLSTON       PTSUNNY   64  61  90 SE3       29.67F
TRAVERSE CITY  PTSUNNY   75  62  64 SW8       29.66F
$$
MIZ007>008-015-021400-
EASTERN UPPER MICHIGAN

CITY           SKY/WX    TMP DP  RH WIND       PRES   REMARKS
KINROSS        MOSUNNY   72  64  78 SW5       29.65S
MACKINAC ISLAN   N/A     70  58  66 SW9       29.65S
NEWBERRY       MOSUNNY   67  62  82 W7        29.64S
S. S. MARIE    MOSUNNY   70  62  76 SW8       29.64F
$$
MIZ004>006-011>014-085-021400-
CENTRAL UPPER MICHIGAN

CITY           SKY/WX    TMP DP  RH WIND       PRES   REMARKS
MANISTIQUE     HVY RAIN  64  61  88 NW14G31   29.68R
ESCANABA       CLOUDY    64  57  77 NW6       29.68R
MENOMINEE      PTSUNNY   70  63  78 W7        29.66R
SAWYER-GWINN   CLOUDY    63  59  88 CALM      29.65F
$$
MIZ001>003-009>011-084-021400-
WESTERN UPPER MICHIGAN

CITY           SKY/WX    TMP DP  RH WIND       PRES   REMARKS
IRON MOUNTAIN  CLOUDY    67  62  84 NW9       29.66F
HOUGHTON       PTSUNNY   62  58  86 SW8       29.63R
COPPER HARBOR    N/A     63  60  90 CALM      29.57F
IRONWOOD       CLOUDY    64  59  82 S3        29.63R
$$

ABBREVIATIONS USED IN REMARKS
   TC - TEMPERATURE IN CELSIUS
  WCI - WIND CHILL INDEX
   HX - HEAT INDEX
  VSB - VISIBILITY



USA.gov is the U.S. government's official web portal to all federal, state and local government web resources and services.